STARLINK-1081 (44962 NORAD) Tracking and Keplerian Element Data

This shows tracking and keplerian element data for the satellite.

Feedback or suggestion? Click here.




ElementValue
Catalog44962
NameSTARLINK-1081
Epoch Orbit654
Epoch Day48.58334491
Epoch Year2020
RAAN190.4022
Inclination52.9954
Eccentricity0.0001743
Argument of Perigee45.7715
Mean Anonmoly281.3688
Mean Motion15.73210239
Decay Rate0.00171462
L11 44962U 20001BA 20048.58334491 .00171462 00000-0 12005-2 0 9990
L22 44962 52.9954 190.4022 0001743 45.7715 281.3688 15.73210239 6547

Live tracking and technical data element details for STARLINK-1081 (NORAD 44962). STARLINK-1081 can be tracked NOW for your location showing map with azimuth and elevation plus other details from your city location.

Track the satellite on the map from your city or location and see movement details for azimuth, elevation, latitude, longitude, range, height, and movement on the map or in text.







IsCatalogInMostPopularTable: catalog: 44962, numindb: 8
Update: records affected: 1



GetName: 44962 STARLINK-1081

Hit Count: updated at: Tue, 18 Feb 2020 00:57:01 GMT